User: anonymous   Login
Location: Rio Negrinho
(26.2394°S, 49.4999°W)
Time: 14:55:50
(UTC+00:00)
Language:

NOAA 6 - Orbit

View from above orbital plane
View from above orbital plane
View from above satellite
View from above satellite

Ground track
Ground track

The orbit data is extracted from the following two-line orbital elements,

1 11416U 79057A   21020.01972468  .00000029  00000-0  26629-4 0  9993
2 11416  98.6642  25.0523 0009914 339.0963  20.9815 14.33613808168167
Epoch (UTC): 20 January 2021 00:28:24
Eccentricity: 0.0009914
inclination: 98.6642°
perigee height: 772 km
apogee height: 787 km
right ascension of ascending node: 25.0523°
argument of perigee: 339.0963°
revolutions per day: 14.33613808
mean anomaly at epoch: 20.9815°
orbit number at epoch: 16816

The dashed part of the orbit path shows where the satellite is in the earth's shadow,  

DLR